• Processing (Info)

  • MPEC 2005-J60 : 2005 JY80

    The following Minor Planet Electronic Circular may be linked-to from your own Web pages, but must not otherwise be redistributed electronically.

    A form allowing access to any MPEC is at the bottom of this page.


    Read MPEC 2005-J59 Read MPEC 2005-J61


    M.P.E.C. 2005-J60                                Issued 2005 May 13, 20:53 UT
    
         The Minor Planet Electronic Circulars contain information on unusual
             minor planets and routine data on comets.  They are published
       on behalf of Commission 20 of the International Astronomical Union by the
              Minor Planet Center, Smithsonian Astrophysical Observatory,
                              Cambridge, MA 02138, U.S.A.
    
                      Supported in part by the Brinson Foundation
                 Prepared using the Tamkin Foundation Computer Network
    
                                  MPC@CFA.HARVARD.EDU
              URL http://cfa-www.harvard.edu/iau/mpc.html  ISSN 1523-6714
    
                                       2005 JY80
    
    Observations:
         K05J80Y* C2005 05 11.40787 17 02 33.76 +09 54 22.4          18.7 R EJ060703
         K05J80Y  C2005 05 11.41543 17 02 33.52 +09 54 26.2          18.3 R EJ060703
         K05J80Y  C2005 05 11.42297 17 02 33.29 +09 54 29.5          18.3 R EJ060703
         K05J80Y  C2005 05 11.43051 17 02 32.80 +09 54 32.2          17.4 R EJ060703
         K05J80Y  C2005 05 12.39058 17 02 06.04 +10 02 52.4          18.8   EJ060704
         K05J80Y  C2005 05 12.40115 17 02 05.69 +10 02 57.4          19.0   EJ060704
         K05J80Y  C2005 05 12.41142 17 02 05.43 +10 03 02.4          19.0   EJ060704
         K05J80Y  C2005 05 12.42171 17 02 05.06 +10 03 08.0          19.1   EJ060704
         K05J80Y  C2005 05 12.43282 17 02 04.63 +10 03 14.0          19.1   EJ060704
         K05J80Y  C2005 05 13.37001 17 01 36.33 +10 11 06.7          19.1   EJ060704
         K05J80Y  C2005 05 13.37926 17 01 35.99 +10 11 10.9          18.7   EJ060704
         K05J80Y  C2005 05 13.38795 17 01 35.68 +10 11 15.4          19.1   EJ060704
         K05J80Y  C2005 05 13.39725 17 01 35.36 +10 11 20.1          19.3   EJ060704
         K05J80Y  C2005 05 13.40589 17 01 35.06 +10 11 24.6          19.2   EJ060704
    
    Observer details:
    703 Catalina Sky Survey.  Observer E. Beshore.  Measurers E. C. Beshore,
        C. M. Casey, E. J. Christensen, G. J. Garradd, R. E. Hill, S. M. Larson,
        R. H. McNaught.  0.68-m Schmidt + CCD.
    704 Lincoln Laboratory ETS, New Mexico.  Observers M. Blythe, F. Shelly,
        M. Bezpalko, R. Huber, L. Manguso, D. Torres, R. Kracke, M. McCleary,
        H. Stange, A. Milner.  Measurers J. Stuart, R. Sayer, J. Evans, J. Kommers.
        1.0-m f/2.15 reflector + CCD.
    
    Orbital elements:
    2005 JY80
    Epoch 2005 May 10.0 TT = JDT 2453500.5                  MPC
    M 323.74900              (2000.0)            P               Q
    n   0.27448429     Peri.  208.14181     +0.83428545     +0.48671717
    a   2.3449003      Node   120.40413     -0.43252566     +0.86909555
    e   0.4902151      Incl.   17.47457     -0.34189083     +0.08820045
    P   3.59           H   16.5           G   0.15
    From 13 observations 2005 May 11-13.
    
    Ephemeris:
    2005 JY80                a,e,i = 2.34, 0.49, 17                  q = 1.1954
    Date    TT    R. A. (2000) Decl.     Delta      r     Elong.  Phase     V
    2005 05 10    17 03.16   +09 41.9    0.884    1.783   140.5    21.1    18.5
    2005 05 20    16 57.30   +10 59.5    0.793    1.720   144.6    19.9    18.2
    2005 05 30    16 47.92   +11 39.0    0.716    1.658   146.2    19.9    17.9
    2005 06 09    16 35.85   +11 21.5    0.655    1.596   144.8    21.5    17.6
    2005 06 19    16 22.80   +09 50.9    0.608    1.535   140.5    24.9    17.5
    2005 06 29    16 10.92   +07 01.2    0.575    1.476   134.2    29.6    17.4
    2005 07 09    16 02.22   +02 55.9    0.554    1.421   127.0    34.8    17.4
    2005 07 19    15 58.31   -02 12.5    0.541    1.369   119.8    40.1    17.4
    2005 07 29    16 00.02   -08 07.2    0.536    1.321   113.1    45.0    17.5
    2005 08 08    16 07.84   -14 31.4    0.537    1.280   107.2    49.2    17.5
    2005 08 18    16 22.15   -21 08.2    0.543    1.246   102.2    52.6    17.6
    2005 08 28    16 43.34   -27 39.7    0.554    1.220    98.3    55.0    17.7
    2005 09 07    17 12.03   -33 45.7    0.569    1.203    95.4    56.5    17.7
    2005 09 17    17 48.85   -39 02.5    0.589    1.196    93.5    57.0    17.8
    2005 09 27    18 33.68   -43 03.6    0.616    1.199    92.5    56.7    17.9
    2005 10 07    19 25.04   -45 24.7    0.649    1.212    92.1    55.5    18.0
    2005 10 17    20 19.42   -45 52.0    0.689    1.234    92.3    53.8    18.1
    2005 10 27    21 12.33   -44 29.1    0.738    1.265    92.6    51.7    18.3
    2005 11 06    22 00.45   -41 35.7    0.797    1.303    93.0    49.4    18.4
    2005 11 16    22 42.53   -37 39.3    0.866    1.348    93.0    47.1    18.6
    2005 11 26    23 18.85   -33 06.5    0.946    1.399    92.7    44.8    18.8
    2005 12 06    23 50.47   -28 17.8    1.038    1.453    91.8    42.7    19.0
    2005 12 16    00 18.50   -23 28.0    1.141    1.510    90.3    40.7    19.3
    2005 12 26    00 43.86   -18 47.1    1.255    1.570    88.2    38.8    19.5
    2006 01 05    01 07.32   -14 20.5    1.380    1.632    85.6    36.9    19.8
    2006 01 15    01 29.43   -10 11.7    1.514    1.694    82.5    35.1    20.0
    2006 01 25    01 50.55   -06 22.0    1.656    1.757    79.0    33.4    20.2
    2006 02 04    02 11.01   -02 51.5    1.804    1.820    75.1    31.6    20.4
    2006 02 14    02 31.00   +00 19.8    1.957    1.883    71.0    29.7    20.6
    2006 02 24    02 50.65   +03 12.6    2.112    1.946    66.7    27.8    20.8
    2006 03 06    03 10.07   +05 48.0    2.270    2.008    62.1    25.9    21.0
    
    Timothy B. Spahr             (C) Copyright 2005 MPC           M.P.E.C. 2005-J60
    

    Read MPEC 2005-J59 Read MPEC 2005-J61


    MPEC number:

    Enter an MPEC number in one of the following forms:

    • 1997-B01 (the full form)
    • J97B01 (the packed version of the full form)
    • B01 (the abbreviated form)